* Astronomy

Members Login
Username 
 
Password 
    Remember Me  
Post Info TOPIC: Asteroid 2010 FC49


L

Posts: 131433
Date:
Asteroid 2010 FC49
Permalink  
 


Orbital elements:
2010 FC49
Epoch 2011 Feb. 8.0 TT = JDT 2455600.5                  MPC
M 250.62132              (2000.0)            P               Q
n   0.00405992     Peri.  295.77967     +0.45596139     +0.88978167
a  38.9156729      Node     1.76156     -0.39236924     +0.22082783
e   0.0663377      Incl.   39.83682     -0.79884016     +0.39940411
P 243              H    5.7           G   0.15           U   6

MPEC 2011 - G73



__________________
Page 1 of 1  sorted by
Quick Reply

Please log in to post quick replies.



Create your own FREE Forum
Report Abuse
Powered by ActiveBoard